GEFSMA_prec_meanprecacc_288.txt.gz
Total_Precipitation_Accumulation
1.19 1.16 1.28 1.54 1.63 1.67 1.88 1.96 1.77 1.66 1.65 1.58 1.48 1.37 1.30 1.22 1.22 1.20 1.56 1.96 2.41 2.94 3.35 3.27 2.87 2.37 2.22 2.39 2.37 2.29 2.24 2.46 3.04 3.17 3.06 2.99 2.87 2.88 2.65 2.29 2.02 1.91 1.83
1.23 1.26 1.22 1.39 1.65 1.73 1.79 1.83 1.75 1.67 1.63 1.62 1.53 1.49 1.46 1.26 1.35 1.36 1.45 1.54 1.76 2.16 2.86 3.27 3.05 2.60 2.46 2.48 2.40 2.35 2.27 2.32 2.95 3.22 3.25 3.15 3.03 3.04 2.66 2.30 2.19 2.06 2.04
1.23 1.24 1.16 1.26 1.50 1.72 1.79 1.78 1.72 1.73 1.54 1.45 1.52 1.56 1.54 1.42 1.46 1.51 1.49 1.47 1.40 1.64 2.22 2.87 3.02 2.85 2.78 2.82 2.63 2.52 2.48 2.58 2.75 3.06 3.22 3.24 3.14 2.99 2.60 2.28 2.05 2.09 2.14
1.21 1.31 1.25 1.22 1.41 1.66 1.91 2.05 1.93 1.83 1.69 1.57 1.61 1.62 1.54 1.58 1.56 1.56 1.52 1.52 1.53 1.42 1.59 1.91 2.32 2.74 2.93 3.09 2.94 2.81 2.56 2.34 2.33 2.65 2.97 3.18 3.23 3.00 2.87 2.55 2.23 2.19 2.34
1.14 1.37 1.49 1.42 1.47 1.69 1.81 1.89 1.94 1.80 1.77 1.68 1.54 1.51 1.49 1.59 1.65 1.50 1.49 1.50 1.56 1.52 1.46 1.33 1.49 1.86 2.39 3.10 3.28 2.96 2.74 2.44 2.20 2.30 2.57 2.90 3.12 3.02 2.90 2.68 2.39 2.21 2.27
1.37 1.50 1.62 1.65 1.67 1.79 1.82 1.99 2.21 2.00 1.80 1.76 1.59 1.48 1.45 1.52 1.56 1.56 1.62 1.61 1.61 1.57 1.54 1.39 1.32 1.19 1.53 2.26 2.88 2.82 2.86 2.70 2.35 2.25 2.37 2.50 2.73 2.89 2.67 2.60 2.58 2.35 2.20
1.63 1.72 1.82 1.89 1.86 1.81 1.90 2.10 2.51 2.40 2.04 1.82 1.83 1.70 1.56 1.53 1.59 1.55 1.68 1.76 1.67 1.62 1.64 1.56 1.40 1.25 1.16 1.34 1.91 2.49 2.74 2.90 2.71 2.47 2.42 2.51 2.56 2.78 2.68 2.51 2.68 2.64 2.46
1.73 1.79 1.98 2.10 2.07 2.08 2.17 2.25 2.54 2.73 2.45 2.23 2.23 2.40 2.16 1.95 1.62 1.37 1.42 1.54 1.60 1.64 1.62 1.63 1.51 1.36 1.31 1.26 1.22 1.73 2.21 2.57 2.80 2.66 2.49 2.50 2.59 2.74 2.83 2.74 2.73 2.86 2.78
1.93 1.88 1.95 2.16 2.17 2.18 2.26 2.47 2.79 3.13 3.09 2.78 2.53 2.71 2.46 2.17 2.08 1.58 1.28 1.34 1.48 1.60 1.62 1.68 1.63 1.49 1.45 1.48 1.32 1.23 1.43 1.85 2.49 2.77 2.74 2.64 2.64 2.69 2.78 2.84 3.00 2.93 2.94
1.85 1.85 1.93 2.11 2.28 2.42 2.56 2.63 2.61 3.03 3.37 3.18 2.95 2.57 2.25 2.11 2.26 2.13 1.64 1.35 1.39 1.44 1.50 1.50 1.60 1.67 1.62 1.57 1.46 1.12 1.05 1.33 2.10 2.85 3.08 2.87 2.65 2.61 2.79 2.90 2.89 2.70 2.67
1.97 1.88 1.90 1.94 1.99 2.11 2.28 2.43 2.48 2.74 3.00 3.18 3.15 2.92 2.61 2.42 1.98 1.98 2.06 1.81 1.54 1.32 1.30 1.42 1.59 1.67 1.66 1.55 1.56 1.23 1.02 0.98 1.38 2.17 2.82 2.99 2.87 2.79 2.95 2.98 2.77 2.58 2.50
1.97 1.84 1.77 1.84 1.86 1.87 2.02 2.15 2.26 2.54 2.76 2.92 2.98 2.90 2.79 2.71 2.38 2.11 1.95 1.91 1.77 1.53 1.37 1.36 1.43 1.51 1.59 1.53 1.40 1.39 1.17 0.94 0.97 1.26 1.79 2.41 2.67 2.77 2.89 2.93 2.84 2.67 2.72
1.57 1.54 1.46 1.48 1.62 1.70 1.87 1.95 1.92 2.00 2.18 2.41 2.60 2.65 2.68 2.59 2.50 2.42 2.26 2.05 1.81 1.48 1.46 1.37 1.34 1.43 1.46 1.56 1.52 1.64 1.27 1.03 0.94 0.96 1.18 1.51 1.82 2.14 2.49 2.70 2.85 2.91 3.02
1.22 1.17 1.18 1.17 1.23 1.32 1.53 1.77 1.79 1.81 1.86 1.96 2.04 2.32 2.51 2.48 2.49 2.27 2.17 2.21 1.98 1.66 1.47 1.27 1.16 1.21 1.29 1.41 1.68 1.78 1.28 1.16 0.97 0.98 1.06 1.09 1.24 1.43 1.78 2.20 2.42 2.63 2.79
0.93 0.92 0.97 1.06 1.12 1.12 1.22 1.37 1.59 1.66 1.73 1.81 1.81 1.97 2.13 2.23 2.23 2.05 2.08 2.18 2.09 1.79 1.57 1.39 1.30 1.23 1.22 1.27 1.56 1.47 1.30 1.25 1.12 1.07 1.03 1.02 1.04 1.10 1.25 1.49 1.71 1.84 1.95
0.82 0.84 0.85 0.90 0.98 1.02 1.10 1.22 1.28 1.38 1.48 1.64 1.81 1.94 1.96 2.00 2.07 1.98 1.96 2.07 2.08 1.90 1.66 1.44 1.27 1.21 1.27 1.21 1.38 1.30 1.39 1.47 1.16 1.03 0.98 1.01 0.98 0.92 0.88 0.96 1.10 1.24 1.31
0.68 0.68 0.74 0.85 0.88 0.91 0.95 0.96 1.00 1.05 1.13 1.25 1.32 1.47 1.68 1.87 1.97 1.97 2.01 2.06 2.09 1.96 1.71 1.56 1.31 1.27 1.39 1.34 1.32 1.27 1.37 1.42 1.20 1.09 0.95 0.91 0.91 0.86 0.84 0.82 0.84 0.91 1.00
0.66 0.66 0.72 0.78 0.80 0.87 0.90 0.88 0.88 0.93 1.04 1.14 1.16 1.21 1.33 1.58 1.73 1.84 1.93 1.96 2.02 1.98 1.80 1.76 1.66 1.43 1.36 1.34 1.44 1.51 1.45 1.43 1.37 1.37 1.23 1.02 0.94 0.91 0.86 0.83 0.80 0.77 0.79
0.83 0.85 0.83 0.86 0.82 0.86 0.88 0.86 0.88 0.91 0.93 1.00 1.03 1.06 1.16 1.29 1.45 1.54 1.64 1.75 1.84 1.95 1.93 1.73 1.78 1.71 1.48 1.42 1.45 1.53 1.59 1.68 1.56 1.51 1.56 1.39 1.17 1.08 1.00 0.92 0.85 0.82 0.81
0.72 0.74 0.82 0.89 0.95 1.00 0.99 0.93 0.93 0.93 0.88 0.89 0.95 1.03 1.06 1.09 1.27 1.49 1.59 1.69 1.74 1.84 1.95 1.86 1.79 1.76 1.61 1.53 1.52 1.55 1.69 1.79 1.80 1.58 1.48 1.41 1.36 1.26 1.14 1.04 0.95 0.91 0.90
0.60 0.60 0.70 0.78 0.88 0.98 1.03 1.02 0.89 0.78 0.79 0.83 0.84 0.85 0.92 1.01 1.12 1.32 1.43 1.66 1.71 1.85 1.92 1.95 1.86 1.69 1.56 1.52 1.50 1.49 1.60 1.81 1.88 1.82 1.67 1.46 1.35 1.19 1.11 1.08 1.06 1.04 1.00
0.56 0.56 0.60 0.58 0.62 0.68 0.87 0.87 0.75 0.63 0.66 0.76 0.83 0.84 0.83 0.86 0.93 1.00 1.05 1.28 1.49 1.65 1.76 1.77 1.80 1.66 1.51 1.46 1.57 1.60 1.60 1.66 1.80 1.79 1.60 1.64 1.58 1.39 1.23 1.10 1.18 1.25 1.23
0.55 0.54 0.49 0.44 0.47 0.54 0.60 0.58 0.65 0.63 0.64 0.69 0.77 0.85 0.89 0.86 0.92 1.01 1.02 1.10 1.20 1.26 1.41 1.54 1.57 1.52 1.49 1.44 1.53 1.60 1.60 1.52 1.46 1.57 1.52 1.59 1.62 1.48 1.32 1.22 1.26 1.21 1.20
0.52 0.56 0.48 0.44 0.49 0.50 0.54 0.59 0.63 0.62 0.73 0.80 0.80 0.79 0.89 0.94 1.00 1.17 1.17 1.24 1.18 1.09 1.10 1.18 1.32 1.38 1.33 1.43 1.54 1.73 1.83 1.68 1.54 1.58 1.55 1.47 1.41 1.36 1.26 1.25 1.28 1.15 1.10
0.48 0.44 0.47 0.60 0.59 0.59 0.68 0.63 0.56 0.63 0.75 0.83 0.78 0.79 0.90 0.98 1.16 1.28 1.31 1.31 1.21 1.13 1.20 1.30 1.38 1.45 1.46 1.52 1.61 1.71 1.78 1.78 1.69 1.64 1.51 1.37 1.27 1.27 1.28 1.22 1.20 1.22 1.16
0.41 0.42 0.46 0.59 0.63 0.67 0.69 0.55 0.53 0.63 0.76 0.84 0.83 0.82 1.03 1.03 1.13 1.19 1.24 1.36 1.36 1.24 1.21 1.21 1.25 1.32 1.32 1.39 1.64 1.69 1.82 1.89 1.75 1.66 1.51 1.37 1.33 1.44 1.52 1.34 1.17 1.14 1.12

GEFSMA_prec_meanprecacc_294.txt.gz
Total_Precipitation_Accumulation
1.21 1.17 1.29 1.54 1.64 1.69 1.90 1.97 1.78 1.68 1.66 1.59 1.49 1.38 1.31 1.23 1.22 1.21 1.58 2.00 2.44 2.98 3.43 3.37 2.94 2.42 2.27 2.42 2.40 2.31 2.26 2.48 3.06 3.19 3.09 3.02 2.89 2.90 2.67 2.32 2.05 1.94 1.88
1.23 1.27 1.23 1.39 1.67 1.75 1.81 1.85 1.78 1.69 1.64 1.63 1.55 1.51 1.47 1.27 1.36 1.36 1.45 1.55 1.77 2.18 2.89 3.33 3.11 2.65 2.49 2.50 2.41 2.36 2.28 2.34 2.96 3.24 3.27 3.18 3.05 3.07 2.69 2.33 2.23 2.09 2.07
1.24 1.24 1.16 1.27 1.52 1.74 1.80 1.81 1.77 1.77 1.57 1.47 1.54 1.58 1.55 1.43 1.47 1.51 1.49 1.48 1.41 1.65 2.24 2.90 3.06 2.89 2.81 2.85 2.64 2.54 2.50 2.60 2.77 3.08 3.24 3.26 3.16 3.01 2.64 2.31 2.10 2.13 2.18
1.22 1.32 1.25 1.22 1.42 1.67 1.92 2.07 1.96 1.89 1.74 1.60 1.63 1.64 1.55 1.59 1.57 1.56 1.52 1.53 1.54 1.43 1.60 1.92 2.33 2.77 2.95 3.12 2.97 2.84 2.59 2.37 2.36 2.67 2.99 3.20 3.25 3.02 2.90 2.58 2.26 2.23 2.38
1.16 1.38 1.49 1.43 1.48 1.70 1.82 1.90 1.96 1.85 1.80 1.70 1.56 1.53 1.50 1.60 1.66 1.50 1.50 1.50 1.57 1.53 1.47 1.34 1.50 1.88 2.42 3.12 3.31 2.99 2.78 2.48 2.24 2.34 2.61 2.94 3.15 3.04 2.93 2.71 2.42 2.24 2.30
1.38 1.51 1.63 1.66 1.68 1.80 1.83 2.00 2.23 2.03 1.82 1.78 1.60 1.50 1.46 1.53 1.57 1.56 1.62 1.61 1.61 1.58 1.55 1.39 1.33 1.21 1.55 2.27 2.89 2.84 2.89 2.75 2.40 2.30 2.42 2.54 2.76 2.92 2.70 2.63 2.61 2.39 2.24
1.65 1.75 1.84 1.91 1.87 1.82 1.91 2.11 2.53 2.42 2.07 1.85 1.84 1.71 1.57 1.54 1.59 1.55 1.68 1.77 1.67 1.63 1.65 1.57 1.41 1.26 1.16 1.34 1.91 2.50 2.75 2.93 2.75 2.52 2.45 2.54 2.60 2.82 2.71 2.55 2.71 2.68 2.51
1.78 1.83 2.02 2.13 2.09 2.09 2.19 2.26 2.55 2.74 2.47 2.25 2.24 2.41 2.17 1.95 1.63 1.38 1.43 1.54 1.60 1.64 1.63 1.64 1.52 1.36 1.31 1.26 1.23 1.75 2.23 2.60 2.84 2.70 2.53 2.54 2.62 2.77 2.87 2.78 2.76 2.90 2.82
1.96 1.91 1.98 2.17 2.19 2.19 2.27 2.48 2.80 3.14 3.11 2.80 2.54 2.72 2.47 2.18 2.09 1.59 1.29 1.35 1.49 1.61 1.63 1.70 1.64 1.50 1.46 1.49 1.32 1.24 1.48 1.91 2.53 2.81 2.78 2.68 2.67 2.72 2.82 2.88 3.05 2.99 2.99
1.88 1.87 1.95 2.12 2.29 2.43 2.57 2.64 2.62 3.03 3.38 3.18 2.96 2.58 2.26 2.11 2.27 2.13 1.65 1.35 1.40 1.45 1.52 1.52 1.63 1.69 1.64 1.58 1.47 1.13 1.06 1.35 2.13 2.89 3.12 2.90 2.69 2.64 2.84 3.00 3.06 2.85 2.77
2.00 1.90 1.91 1.95 2.00 2.12 2.29 2.44 2.50 2.75 3.01 3.19 3.17 2.94 2.63 2.42 1.98 1.99 2.07 1.81 1.54 1.32 1.31 1.43 1.61 1.68 1.67 1.56 1.57 1.24 1.03 0.99 1.39 2.19 2.84 3.02 2.92 2.85 3.03 3.10 2.90 2.69 2.58
2.01 1.86 1.79 1.85 1.87 1.88 2.03 2.16 2.28 2.56 2.77 2.93 3.00 2.92 2.81 2.72 2.39 2.11 1.95 1.91 1.77 1.53 1.37 1.37 1.44 1.52 1.60 1.54 1.41 1.40 1.18 0.96 0.98 1.27 1.81 2.44 2.74 2.85 2.99 3.02 2.91 2.72 2.76
1.59 1.56 1.48 1.50 1.63 1.71 1.88 1.97 1.93 2.01 2.19 2.42 2.60 2.66 2.70 2.60 2.52 2.42 2.27 2.05 1.81 1.49 1.46 1.38 1.35 1.44 1.46 1.57 1.53 1.66 1.29 1.05 0.95 0.97 1.19 1.54 1.90 2.22 2.60 2.78 2.90 2.95 3.05
1.23 1.19 1.20 1.19 1.24 1.33 1.55 1.78 1.80 1.81 1.87 1.97 2.05 2.33 2.52 2.49 2.50 2.29 2.18 2.22 1.98 1.66 1.47 1.27 1.17 1.22 1.29 1.42 1.69 1.79 1.29 1.17 0.98 1.00 1.09 1.11 1.28 1.46 1.82 2.25 2.47 2.66 2.82
0.95 0.93 0.98 1.07 1.14 1.13 1.23 1.39 1.60 1.66 1.74 1.81 1.82 1.99 2.14 2.24 2.24 2.07 2.10 2.19 2.09 1.79 1.58 1.40 1.31 1.24 1.22 1.27 1.57 1.47 1.30 1.27 1.14 1.09 1.05 1.03 1.05 1.11 1.26 1.50 1.74 1.87 1.98
0.84 0.85 0.86 0.91 0.99 1.03 1.11 1.22 1.28 1.39 1.49 1.65 1.82 1.95 1.97 2.01 2.09 1.99 1.98 2.09 2.08 1.90 1.67 1.44 1.28 1.22 1.27 1.21 1.40 1.32 1.40 1.49 1.18 1.04 0.99 1.01 0.98 0.93 0.89 0.97 1.12 1.25 1.32
0.70 0.70 0.76 0.86 0.89 0.92 0.95 0.96 1.00 1.06 1.14 1.26 1.32 1.48 1.69 1.88 1.98 1.98 2.02 2.07 2.10 1.97 1.71 1.56 1.31 1.28 1.40 1.34 1.33 1.29 1.38 1.43 1.21 1.10 0.96 0.91 0.91 0.87 0.85 0.83 0.85 0.92 1.01
0.67 0.68 0.74 0.80 0.82 0.88 0.90 0.88 0.88 0.93 1.04 1.14 1.17 1.21 1.34 1.60 1.75 1.85 1.94 1.96 2.03 1.99 1.81 1.76 1.67 1.44 1.36 1.34 1.45 1.53 1.47 1.44 1.38 1.38 1.24 1.03 0.95 0.92 0.87 0.83 0.80 0.78 0.80
0.84 0.86 0.85 0.88 0.84 0.87 0.89 0.87 0.89 0.92 0.95 1.02 1.05 1.07 1.17 1.30 1.46 1.55 1.65 1.76 1.85 1.96 1.93 1.74 1.78 1.72 1.49 1.43 1.45 1.54 1.60 1.70 1.57 1.52 1.57 1.39 1.18 1.08 1.00 0.92 0.85 0.82 0.81
0.73 0.76 0.84 0.91 0.96 1.01 0.99 0.94 0.94 0.95 0.90 0.92 0.99 1.05 1.08 1.10 1.29 1.51 1.61 1.70 1.75 1.85 1.96 1.87 1.80 1.77 1.62 1.54 1.52 1.56 1.70 1.81 1.81 1.58 1.48 1.42 1.36 1.26 1.14 1.05 0.95 0.91 0.90
0.61 0.61 0.70 0.79 0.90 0.99 1.03 1.03 0.90 0.80 0.81 0.87 0.87 0.88 0.95 1.04 1.14 1.35 1.46 1.68 1.73 1.87 1.93 1.96 1.86 1.70 1.57 1.53 1.51 1.50 1.61 1.82 1.89 1.82 1.68 1.47 1.35 1.20 1.11 1.08 1.07 1.05 1.00
0.58 0.57 0.61 0.59 0.63 0.68 0.88 0.88 0.77 0.65 0.68 0.78 0.85 0.86 0.86 0.91 0.97 1.03 1.08 1.31 1.51 1.66 1.78 1.79 1.81 1.67 1.53 1.47 1.58 1.62 1.61 1.67 1.81 1.80 1.61 1.65 1.59 1.39 1.24 1.11 1.19 1.25 1.24
0.59 0.57 0.51 0.47 0.49 0.56 0.62 0.60 0.66 0.65 0.66 0.71 0.79 0.87 0.92 0.90 0.96 1.04 1.05 1.13 1.22 1.28 1.43 1.56 1.59 1.53 1.51 1.45 1.55 1.62 1.61 1.53 1.47 1.58 1.53 1.60 1.63 1.49 1.33 1.24 1.27 1.22 1.21
0.54 0.59 0.51 0.47 0.51 0.52 0.56 0.61 0.64 0.63 0.74 0.81 0.81 0.80 0.93 0.98 1.03 1.18 1.18 1.26 1.20 1.11 1.12 1.20 1.34 1.39 1.34 1.44 1.55 1.74 1.84 1.69 1.55 1.59 1.56 1.48 1.42 1.37 1.27 1.26 1.29 1.16 1.11
0.50 0.46 0.49 0.62 0.61 0.61 0.70 0.65 0.57 0.63 0.76 0.84 0.79 0.81 0.92 1.00 1.18 1.29 1.31 1.32 1.22 1.15 1.23 1.32 1.40 1.47 1.47 1.53 1.62 1.71 1.78 1.79 1.70 1.65 1.52 1.39 1.28 1.28 1.29 1.23 1.20 1.23 1.16
0.43 0.45 0.49 0.62 0.66 0.70 0.71 0.58 0.55 0.65 0.76 0.85 0.84 0.83 1.04 1.04 1.14 1.19 1.24 1.36 1.36 1.25 1.23 1.23 1.27 1.33 1.32 1.40 1.65 1.69 1.82 1.90 1.75 1.66 1.51 1.38 1.35 1.46 1.54 1.35 1.18 1.15 1.13

GEFSMA_prec_meanprecacc_300.txt.gz
Total_Precipitation_Accumulation
1.22 1.19 1.31 1.56 1.65 1.70 1.91 1.98 1.80 1.69 1.68 1.61 1.51 1.40 1.32 1.24 1.23 1.22 1.59 2.03 2.50 3.04 3.49 3.45 3.03 2.50 2.35 2.50 2.46 2.35 2.28 2.49 3.08 3.23 3.13 3.07 2.94 2.94 2.70 2.35 2.09 1.99 1.94
1.25 1.28 1.24 1.41 1.68 1.76 1.83 1.86 1.78 1.70 1.65 1.65 1.56 1.52 1.48 1.28 1.37 1.37 1.46 1.56 1.79 2.21 2.93 3.38 3.18 2.73 2.56 2.56 2.46 2.40 2.31 2.35 2.98 3.26 3.29 3.20 3.08 3.09 2.71 2.36 2.26 2.13 2.12
1.25 1.25 1.17 1.27 1.53 1.76 1.82 1.83 1.78 1.77 1.58 1.47 1.55 1.59 1.56 1.44 1.49 1.52 1.50 1.48 1.42 1.68 2.28 2.93 3.10 2.95 2.90 2.94 2.72 2.60 2.54 2.62 2.79 3.10 3.26 3.28 3.18 3.04 2.66 2.35 2.13 2.18 2.23
1.23 1.33 1.26 1.23 1.43 1.69 1.94 2.10 1.99 1.90 1.75 1.61 1.64 1.65 1.57 1.60 1.59 1.58 1.53 1.54 1.55 1.44 1.63 1.95 2.36 2.80 3.00 3.18 3.05 2.90 2.64 2.41 2.39 2.69 3.01 3.22 3.27 3.05 2.93 2.62 2.30 2.27 2.42
1.16 1.39 1.50 1.44 1.49 1.71 1.85 1.94 2.00 1.87 1.82 1.72 1.57 1.54 1.51 1.61 1.68 1.51 1.51 1.51 1.58 1.55 1.49 1.36 1.52 1.92 2.45 3.15 3.35 3.02 2.82 2.52 2.30 2.38 2.65 2.97 3.18 3.08 2.96 2.74 2.45 2.28 2.34
1.39 1.53 1.65 1.67 1.69 1.82 1.84 2.02 2.26 2.08 1.87 1.81 1.63 1.51 1.48 1.54 1.58 1.57 1.63 1.62 1.62 1.59 1.55 1.41 1.35 1.24 1.58 2.31 2.93 2.88 2.92 2.77 2.45 2.36 2.48 2.60 2.82 2.97 2.74 2.66 2.65 2.42 2.29
1.67 1.78 1.88 1.93 1.90 1.84 1.92 2.12 2.55 2.46 2.12 1.90 1.88 1.74 1.58 1.55 1.60 1.56 1.69 1.77 1.68 1.63 1.66 1.58 1.43 1.29 1.19 1.36 1.93 2.53 2.78 2.96 2.79 2.57 2.53 2.61 2.66 2.87 2.76 2.58 2.75 2.72 2.56
1.80 1.86 2.05 2.15 2.11 2.11 2.20 2.27 2.57 2.76 2.51 2.30 2.28 2.43 2.19 1.97 1.63 1.39 1.44 1.55 1.61 1.65 1.63 1.65 1.54 1.39 1.33 1.26 1.23 1.75 2.24 2.63 2.88 2.74 2.59 2.61 2.68 2.83 2.93 2.83 2.81 2.95 2.88
2.00 1.96 2.01 2.20 2.22 2.21 2.28 2.49 2.81 3.16 3.13 2.82 2.56 2.74 2.49 2.19 2.10 1.59 1.29 1.35 1.49 1.61 1.64 1.71 1.66 1.52 1.47 1.49 1.32 1.25 1.49 1.94 2.58 2.86 2.83 2.73 2.73 2.79 2.88 2.95 3.11 3.07 3.07
1.91 1.91 1.98 2.16 2.33 2.46 2.58 2.64 2.63 3.05 3.39 3.20 2.98 2.59 2.27 2.12 2.28 2.14 1.65 1.35 1.40 1.45 1.52 1.53 1.63 1.70 1.64 1.58 1.47 1.13 1.07 1.37 2.16 2.93 3.16 2.94 2.73 2.69 2.91 3.06 3.13 2.94 2.86
2.03 1.93 1.94 1.98 2.03 2.14 2.30 2.44 2.50 2.76 3.01 3.20 3.18 2.95 2.64 2.43 1.99 1.99 2.07 1.81 1.54 1.32 1.31 1.43 1.62 1.69 1.68 1.57 1.57 1.24 1.03 0.99 1.39 2.21 2.87 3.06 2.95 2.89 3.08 3.17 2.98 2.79 2.69
2.03 1.89 1.81 1.87 1.89 1.90 2.04 2.17 2.29 2.57 2.79 2.94 3.01 2.93 2.82 2.73 2.40 2.12 1.95 1.92 1.77 1.53 1.37 1.37 1.45 1.53 1.60 1.54 1.41 1.41 1.19 0.96 0.98 1.28 1.82 2.47 2.78 2.89 3.04 3.09 3.00 2.80 2.87
1.61 1.57 1.50 1.52 1.64 1.72 1.89 1.98 1.94 2.03 2.22 2.44 2.62 2.68 2.71 2.61 2.52 2.43 2.28 2.06 1.81 1.49 1.46 1.38 1.35 1.44 1.47 1.57 1.53 1.66 1.30 1.05 0.95 0.97 1.19 1.54 1.91 2.24 2.64 2.84 2.99 3.03 3.12
1.25 1.21 1.21 1.21 1.26 1.35 1.56 1.79 1.81 1.83 1.90 2.00 2.07 2.35 2.53 2.49 2.51 2.30 2.19 2.23 1.99 1.66 1.47 1.27 1.17 1.22 1.30 1.42 1.69 1.79 1.29 1.17 0.99 1.01 1.09 1.11 1.28 1.47 1.86 2.32 2.56 2.74 2.88
0.97 0.96 1.00 1.09 1.16 1.15 1.25 1.40 1.61 1.67 1.76 1.83 1.83 1.99 2.14 2.24 2.24 2.08 2.12 2.20 2.11 1.80 1.58 1.40 1.31 1.24 1.23 1.28 1.58 1.48 1.30 1.27 1.14 1.09 1.06 1.04 1.06 1.12 1.30 1.57 1.81 1.94 2.02
0.85 0.87 0.88 0.93 1.01 1.05 1.13 1.24 1.29 1.40 1.50 1.66 1.83 1.95 1.98 2.02 2.10 2.01 1.99 2.10 2.09 1.91 1.67 1.45 1.29 1.23 1.28 1.22 1.41 1.32 1.41 1.49 1.18 1.05 1.00 1.02 0.99 0.94 0.90 1.00 1.15 1.29 1.35
0.71 0.71 0.77 0.87 0.91 0.94 0.97 0.98 1.01 1.06 1.14 1.27 1.34 1.49 1.71 1.89 1.99 1.98 2.03 2.08 2.10 1.97 1.72 1.56 1.32 1.29 1.40 1.35 1.34 1.30 1.39 1.44 1.22 1.11 0.96 0.92 0.92 0.87 0.86 0.84 0.86 0.93 1.02
0.68 0.69 0.75 0.81 0.82 0.89 0.92 0.90 0.89 0.94 1.05 1.15 1.17 1.22 1.35 1.60 1.76 1.86 1.94 1.97 2.04 2.00 1.81 1.77 1.68 1.45 1.37 1.35 1.46 1.55 1.49 1.45 1.38 1.38 1.24 1.03 0.95 0.92 0.87 0.84 0.81 0.78 0.80
0.85 0.87 0.86 0.89 0.85 0.88 0.90 0.88 0.89 0.92 0.95 1.02 1.06 1.08 1.18 1.31 1.47 1.56 1.66 1.77 1.86 1.97 1.94 1.75 1.80 1.73 1.50 1.44 1.46 1.57 1.63 1.71 1.57 1.52 1.57 1.40 1.18 1.08 1.00 0.92 0.86 0.83 0.81
0.74 0.76 0.85 0.92 0.98 1.02 1.00 0.95 0.95 0.96 0.91 0.93 1.00 1.06 1.09 1.12 1.30 1.52 1.63 1.71 1.76 1.86 1.97 1.89 1.81 1.79 1.64 1.55 1.53 1.58 1.74 1.82 1.82 1.59 1.49 1.42 1.36 1.26 1.15 1.05 0.95 0.92 0.91
0.62 0.62 0.71 0.80 0.91 1.00 1.04 1.04 0.91 0.81 0.82 0.87 0.88 0.89 0.97 1.06 1.16 1.37 1.47 1.70 1.74 1.88 1.95 1.97 1.88 1.71 1.58 1.55 1.52 1.51 1.64 1.85 1.91 1.83 1.69 1.48 1.36 1.20 1.11 1.08 1.07 1.05 1.01
0.59 0.58 0.62 0.60 0.64 0.69 0.89 0.89 0.78 0.66 0.69 0.79 0.86 0.87 0.87 0.92 0.99 1.05 1.10 1.33 1.53 1.68 1.79 1.80 1.82 1.69 1.54 1.49 1.60 1.64 1.64 1.70 1.83 1.82 1.63 1.68 1.61 1.41 1.24 1.11 1.19 1.26 1.24
0.59 0.58 0.52 0.48 0.50 0.57 0.63 0.61 0.67 0.66 0.67 0.72 0.80 0.89 0.93 0.91 0.98 1.06 1.08 1.16 1.25 1.30 1.45 1.57 1.60 1.54 1.52 1.47 1.57 1.65 1.64 1.57 1.50 1.60 1.57 1.65 1.66 1.51 1.34 1.24 1.27 1.23 1.22
0.55 0.60 0.53 0.48 0.53 0.54 0.58 0.62 0.65 0.63 0.75 0.82 0.83 0.82 0.94 0.99 1.04 1.19 1.19 1.27 1.21 1.12 1.13 1.21 1.36 1.40 1.35 1.45 1.57 1.77 1.87 1.72 1.58 1.61 1.59 1.51 1.44 1.39 1.28 1.26 1.30 1.16 1.11
0.51 0.46 0.50 0.64 0.62 0.64 0.73 0.67 0.58 0.64 0.77 0.85 0.80 0.82 0.93 1.01 1.19 1.30 1.33 1.33 1.23 1.16 1.23 1.33 1.41 1.48 1.49 1.54 1.63 1.72 1.80 1.81 1.72 1.67 1.55 1.41 1.29 1.29 1.29 1.24 1.21 1.23 1.17
0.43 0.45 0.49 0.63 0.68 0.72 0.74 0.61 0.57 0.66 0.77 0.86 0.85 0.84 1.05 1.05 1.15 1.20 1.25 1.37 1.37 1.26 1.24 1.23 1.27 1.34 1.33 1.41 1.65 1.70 1.83 1.91 1.76 1.67 1.53 1.40 1.36 1.47 1.55 1.35 1.18 1.16 1.14

GEFSMA_prec_meanprecacc_306.txt.gz
Total_Precipitation_Accumulation
1.23 1.20 1.32 1.57 1.66 1.73 1.96 2.05 1.86 1.76 1.79 1.70 1.56 1.43 1.34 1.26 1.25 1.23 1.61 2.07 2.56 3.10 3.56 3.51 3.08 2.56 2.41 2.57 2.52 2.40 2.32 2.53 3.12 3.26 3.19 3.14 3.01 3.00 2.75 2.40 2.14 2.06 2.03
1.26 1.29 1.26 1.42 1.69 1.78 1.84 1.88 1.79 1.72 1.71 1.72 1.61 1.55 1.51 1.31 1.39 1.39 1.48 1.58 1.82 2.27 3.00 3.44 3.22 2.78 2.61 2.61 2.51 2.44 2.34 2.38 3.01 3.28 3.31 3.24 3.13 3.13 2.74 2.39 2.29 2.18 2.18
1.27 1.27 1.19 1.29 1.55 1.77 1.83 1.83 1.79 1.79 1.62 1.52 1.59 1.62 1.59 1.47 1.51 1.55 1.53 1.50 1.44 1.71 2.33 2.98 3.14 2.99 2.93 2.97 2.76 2.63 2.57 2.64 2.81 3.11 3.28 3.30 3.21 3.06 2.68 2.37 2.16 2.21 2.27
1.25 1.35 1.28 1.25 1.44 1.70 1.95 2.11 2.00 1.91 1.78 1.65 1.68 1.68 1.59 1.63 1.61 1.60 1.55 1.55 1.57 1.46 1.65 1.99 2.39 2.83 3.02 3.21 3.07 2.92 2.66 2.43 2.40 2.71 3.03 3.24 3.29 3.08 2.95 2.64 2.32 2.29 2.45
1.17 1.40 1.52 1.45 1.50 1.72 1.87 1.97 2.02 1.90 1.84 1.74 1.61 1.58 1.54 1.64 1.70 1.54 1.53 1.53 1.60 1.57 1.50 1.37 1.53 1.93 2.48 3.18 3.37 3.04 2.83 2.53 2.30 2.39 2.66 2.99 3.21 3.12 2.99 2.76 2.47 2.30 2.37
1.40 1.54 1.67 1.68 1.71 1.83 1.86 2.05 2.31 2.14 1.91 1.84 1.65 1.54 1.51 1.57 1.61 1.59 1.66 1.65 1.63 1.61 1.57 1.42 1.35 1.26 1.64 2.37 2.97 2.90 2.94 2.79 2.46 2.37 2.49 2.62 2.85 3.00 2.77 2.68 2.67 2.45 2.31
1.69 1.81 1.90 1.96 1.91 1.86 1.94 2.14 2.58 2.53 2.19 1.95 1.92 1.78 1.63 1.58 1.63 1.60 1.73 1.80 1.70 1.65 1.68 1.60 1.44 1.30 1.22 1.41 1.97 2.56 2.81 2.99 2.82 2.59 2.55 2.64 2.70 2.91 2.79 2.61 2.78 2.75 2.58
1.81 1.88 2.07 2.18 2.14 2.13 2.21 2.28 2.59 2.79 2.55 2.33 2.33 2.49 2.24 2.02 1.67 1.42 1.47 1.57 1.62 1.66 1.64 1.66 1.55 1.41 1.36 1.29 1.25 1.77 2.26 2.65 2.91 2.78 2.63 2.65 2.73 2.88 2.97 2.87 2.85 2.99 2.92
2.01 1.97 2.03 2.22 2.24 2.23 2.30 2.50 2.82 3.18 3.15 2.84 2.59 2.79 2.55 2.25 2.14 1.63 1.32 1.37 1.51 1.62 1.64 1.71 1.67 1.53 1.48 1.51 1.33 1.25 1.51 1.96 2.61 2.89 2.87 2.78 2.78 2.86 2.95 3.00 3.16 3.11 3.11
1.92 1.93 2.00 2.16 2.34 2.48 2.61 2.66 2.64 3.07 3.42 3.23 3.00 2.61 2.30 2.16 2.32 2.17 1.68 1.37 1.41 1.46 1.52 1.53 1.64 1.71 1.65 1.60 1.48 1.13 1.07 1.38 2.18 2.95 3.20 2.98 2.77 2.76 2.98 3.16 3.23 3.02 2.92
2.04 1.95 1.96 1.99 2.04 2.16 2.33 2.47 2.53 2.78 3.03 3.23 3.21 2.97 2.65 2.44 2.01 2.02 2.09 1.83 1.55 1.33 1.31 1.44 1.62 1.69 1.68 1.57 1.58 1.25 1.04 0.99 1.40 2.22 2.90 3.09 2.98 2.93 3.12 3.23 3.08 2.92 2.80
2.05 1.92 1.84 1.89 1.91 1.92 2.07 2.19 2.31 2.59 2.81 2.96 3.03 2.95 2.84 2.76 2.42 2.14 1.96 1.93 1.78 1.54 1.38 1.38 1.45 1.53 1.60 1.54 1.41 1.41 1.19 0.96 0.98 1.28 1.83 2.48 2.80 2.91 3.06 3.13 3.05 2.88 2.98
1.62 1.59 1.51 1.53 1.66 1.74 1.91 1.99 1.95 2.03 2.24 2.46 2.64 2.69 2.73 2.62 2.53 2.44 2.29 2.07 1.81 1.49 1.46 1.38 1.35 1.45 1.47 1.57 1.53 1.66 1.30 1.05 0.96 0.98 1.20 1.55 1.91 2.25 2.65 2.87 3.04 3.08 3.17
1.27 1.23 1.23 1.23 1.28 1.36 1.57 1.79 1.81 1.83 1.92 2.02 2.09 2.37 2.54 2.50 2.52 2.31 2.20 2.24 2.00 1.67 1.48 1.28 1.17 1.22 1.30 1.42 1.69 1.79 1.29 1.17 0.99 1.01 1.09 1.12 1.28 1.47 1.86 2.33 2.58 2.79 2.94
0.99 0.98 1.03 1.11 1.18 1.17 1.25 1.41 1.61 1.68 1.77 1.85 1.85 2.01 2.16 2.25 2.25 2.09 2.12 2.22 2.12 1.82 1.59 1.41 1.31 1.24 1.23 1.28 1.58 1.48 1.31 1.27 1.14 1.10 1.06 1.04 1.06 1.12 1.30 1.57 1.83 1.98 2.09
0.87 0.89 0.89 0.94 1.02 1.06 1.13 1.24 1.30 1.40 1.51 1.68 1.84 1.97 1.99 2.03 2.10 2.01 2.00 2.11 2.10 1.92 1.68 1.46 1.30 1.23 1.28 1.22 1.42 1.32 1.41 1.49 1.18 1.05 1.00 1.02 0.99 0.94 0.91 1.01 1.17 1.32 1.40
0.73 0.72 0.78 0.88 0.92 0.95 0.98 0.99 1.02 1.08 1.16 1.28 1.35 1.50 1.72 1.90 1.99 1.99 2.04 2.09 2.12 1.99 1.73 1.57 1.33 1.30 1.41 1.35 1.34 1.30 1.40 1.45 1.22 1.11 0.96 0.92 0.92 0.88 0.86 0.85 0.87 0.95 1.05
0.70 0.70 0.76 0.82 0.84 0.90 0.93 0.90 0.90 0.96 1.07 1.16 1.18 1.23 1.35 1.61 1.77 1.87 1.95 1.98 2.05 2.01 1.83 1.79 1.69 1.46 1.39 1.36 1.46 1.56 1.50 1.47 1.40 1.38 1.25 1.03 0.95 0.93 0.88 0.85 0.82 0.79 0.82
0.86 0.88 0.87 0.90 0.86 0.89 0.91 0.88 0.90 0.94 0.97 1.04 1.08 1.10 1.19 1.32 1.48 1.57 1.67 1.78 1.86 1.98 1.96 1.77 1.82 1.75 1.52 1.46 1.48 1.59 1.66 1.75 1.60 1.54 1.58 1.40 1.18 1.09 1.01 0.93 0.86 0.84 0.82
0.75 0.78 0.86 0.93 0.99 1.03 1.02 0.96 0.96 0.97 0.92 0.94 1.01 1.08 1.11 1.13 1.31 1.53 1.64 1.73 1.77 1.88 1.99 1.91 1.84 1.81 1.66 1.58 1.56 1.61 1.79 1.89 1.87 1.62 1.51 1.44 1.37 1.27 1.15 1.06 0.96 0.93 0.92
0.63 0.64 0.74 0.82 0.92 1.01 1.05 1.05 0.92 0.82 0.83 0.88 0.88 0.89 0.98 1.08 1.18 1.38 1.49 1.71 1.76 1.89 1.96 1.99 1.89 1.73 1.61 1.57 1.54 1.53 1.72 1.94 1.99 1.88 1.72 1.50 1.38 1.22 1.12 1.09 1.08 1.06 1.01
0.60 0.60 0.64 0.63 0.66 0.71 0.90 0.90 0.79 0.67 0.70 0.80 0.87 0.88 0.88 0.93 1.00 1.06 1.11 1.34 1.54 1.69 1.81 1.82 1.84 1.70 1.56 1.52 1.62 1.65 1.69 1.78 1.91 1.86 1.67 1.71 1.63 1.43 1.26 1.13 1.21 1.27 1.25
0.60 0.59 0.54 0.50 0.52 0.59 0.66 0.62 0.68 0.67 0.68 0.73 0.81 0.89 0.94 0.92 0.98 1.07 1.08 1.16 1.25 1.31 1.46 1.59 1.62 1.56 1.53 1.49 1.59 1.66 1.66 1.61 1.54 1.63 1.60 1.68 1.69 1.53 1.36 1.25 1.28 1.23 1.22
0.55 0.60 0.53 0.49 0.55 0.57 0.61 0.64 0.66 0.65 0.75 0.83 0.84 0.83 0.94 1.00 1.04 1.20 1.21 1.29 1.23 1.13 1.14 1.22 1.37 1.42 1.37 1.47 1.58 1.78 1.89 1.75 1.61 1.64 1.62 1.56 1.48 1.41 1.29 1.27 1.30 1.16 1.11
0.51 0.47 0.51 0.64 0.64 0.66 0.76 0.70 0.61 0.66 0.78 0.85 0.81 0.83 0.94 1.02 1.20 1.31 1.34 1.35 1.24 1.16 1.24 1.33 1.43 1.50 1.50 1.56 1.64 1.73 1.81 1.83 1.74 1.69 1.56 1.45 1.34 1.31 1.30 1.24 1.21 1.24 1.17
0.46 0.47 0.51 0.64 0.69 0.73 0.75 0.63 0.61 0.70 0.80 0.87 0.86 0.85 1.06 1.05 1.16 1.21 1.27 1.38 1.38 1.27 1.24 1.24 1.28 1.34 1.34 1.42 1.66 1.71 1.84 1.92 1.78 1.69 1.54 1.42 1.38 1.48 1.56 1.36 1.18 1.16 1.14

GEFSMA_prec_meanprecacc_312.txt.gz
Total_Precipitation_Accumulation
1.24 1.22 1.33 1.59 1.68 1.75 2.00 2.12 1.99 1.91 1.87 1.77 1.62 1.47 1.37 1.28 1.27 1.24 1.63 2.10 2.59 3.15 3.61 3.56 3.12 2.60 2.44 2.59 2.54 2.43 2.33 2.54 3.14 3.29 3.23 3.19 3.06 3.04 2.80 2.44 2.19 2.11 2.09
1.27 1.30 1.26 1.43 1.71 1.80 1.87 1.90 1.85 1.88 1.85 1.80 1.67 1.59 1.53 1.34 1.42 1.41 1.51 1.59 1.83 2.29 3.04 3.48 3.26 2.82 2.63 2.61 2.51 2.45 2.35 2.39 3.02 3.30 3.33 3.26 3.15 3.15 2.77 2.41 2.32 2.21 2.23
1.28 1.28 1.19 1.30 1.56 1.78 1.84 1.85 1.81 1.89 1.78 1.63 1.65 1.65 1.61 1.50 1.54 1.58 1.55 1.53 1.46 1.73 2.35 3.02 3.17 3.03 2.96 2.99 2.78 2.64 2.58 2.66 2.82 3.13 3.29 3.31 3.22 3.07 2.69 2.38 2.18 2.23 2.31
1.26 1.36 1.29 1.26 1.45 1.71 1.96 2.13 2.01 1.96 1.89 1.75 1.75 1.72 1.61 1.65 1.63 1.63 1.58 1.58 1.59 1.49 1.68 2.02 2.42 2.85 3.05 3.24 3.10 2.94 2.67 2.43 2.41 2.72 3.04 3.25 3.30 3.09 2.96 2.65 2.34 2.31 2.47
1.19 1.41 1.53 1.46 1.51 1.74 1.87 1.98 2.04 1.92 1.89 1.81 1.66 1.61 1.56 1.65 1.72 1.56 1.55 1.55 1.61 1.59 1.52 1.38 1.54 1.94 2.49 3.20 3.39 3.07 2.86 2.55 2.31 2.40 2.67 3.00 3.22 3.13 3.01 2.78 2.50 2.32 2.39
1.41 1.55 1.68 1.69 1.72 1.85 1.88 2.07 2.33 2.16 1.94 1.87 1.69 1.58 1.54 1.58 1.62 1.61 1.67 1.67 1.66 1.63 1.59 1.44 1.37 1.27 1.65 2.37 3.00 2.94 2.97 2.82 2.48 2.38 2.51 2.64 2.86 3.02 2.79 2.71 2.69 2.47 2.34
1.69 1.82 1.91 1.97 1.93 1.87 1.96 2.16 2.60 2.56 2.23 1.98 1.95 1.82 1.66 1.60 1.65 1.61 1.75 1.83 1.73 1.67 1.71 1.62 1.47 1.32 1.23 1.41 1.99 2.58 2.83 3.02 2.85 2.62 2.57 2.67 2.72 2.93 2.82 2.64 2.81 2.78 2.62
1.82 1.89 2.08 2.19 2.15 2.15 2.23 2.31 2.62 2.82 2.57 2.36 2.37 2.55 2.28 2.05 1.69 1.43 1.48 1.58 1.63 1.68 1.66 1.67 1.56 1.43 1.39 1.31 1.26 1.79 2.28 2.68 2.94 2.81 2.67 2.68 2.76 2.91 3.01 2.91 2.89 3.03 2.96
2.01 1.98 2.04 2.23 2.25 2.24 2.32 2.54 2.86 3.21 3.18 2.86 2.62 2.84 2.62 2.31 2.18 1.65 1.34 1.39 1.52 1.64 1.66 1.72 1.68 1.54 1.49 1.53 1.35 1.26 1.51 1.97 2.63 2.91 2.92 2.87 2.85 2.91 3.00 3.05 3.20 3.15 3.16
1.92 1.93 2.01 2.18 2.35 2.48 2.62 2.69 2.67 3.11 3.45 3.26 3.02 2.64 2.34 2.21 2.36 2.21 1.71 1.40 1.44 1.49 1.55 1.56 1.66 1.72 1.66 1.61 1.49 1.14 1.08 1.38 2.19 2.97 3.23 3.05 2.85 2.83 3.05 3.21 3.27 3.05 2.96
2.05 1.96 1.97 2.00 2.05 2.17 2.33 2.48 2.55 2.82 3.08 3.27 3.23 3.00 2.68 2.48 2.05 2.06 2.12 1.86 1.58 1.35 1.34 1.46 1.65 1.71 1.69 1.59 1.59 1.26 1.04 1.00 1.41 2.23 2.92 3.14 3.04 2.98 3.18 3.28 3.12 2.96 2.85
2.06 1.92 1.85 1.90 1.92 1.93 2.08 2.20 2.33 2.62 2.85 3.00 3.08 2.98 2.87 2.79 2.46 2.17 1.99 1.95 1.81 1.56 1.40 1.40 1.47 1.54 1.61 1.55 1.42 1.41 1.19 0.97 0.99 1.29 1.85 2.52 2.83 2.94 3.08 3.15 3.08 2.91 3.01
1.64 1.60 1.52 1.55 1.67 1.74 1.91 1.99 1.96 2.05 2.26 2.49 2.68 2.74 2.77 2.66 2.56 2.47 2.32 2.09 1.83 1.50 1.47 1.39 1.37 1.46 1.48 1.58 1.54 1.67 1.30 1.05 0.96 0.99 1.21 1.56 1.93 2.26 2.67 2.89 3.06 3.11 3.21
1.29 1.25 1.24 1.24 1.30 1.37 1.58 1.80 1.82 1.84 1.93 2.03 2.11 2.40 2.58 2.54 2.55 2.33 2.23 2.27 2.02 1.68 1.49 1.30 1.19 1.23 1.31 1.43 1.71 1.80 1.30 1.18 0.99 1.01 1.10 1.12 1.29 1.48 1.88 2.35 2.60 2.81 2.99
1.02 1.00 1.05 1.14 1.20 1.18 1.27 1.42 1.62 1.69 1.77 1.86 1.86 2.03 2.19 2.28 2.27 2.10 2.14 2.24 2.15 1.85 1.62 1.44 1.34 1.26 1.24 1.30 1.60 1.48 1.32 1.27 1.15 1.10 1.06 1.04 1.06 1.12 1.30 1.58 1.84 2.00 2.12
0.89 0.91 0.91 0.97 1.04 1.07 1.15 1.26 1.30 1.41 1.52 1.70 1.86 1.98 2.01 2.05 2.12 2.02 2.02 2.13 2.13 1.95 1.71 1.48 1.31 1.24 1.29 1.24 1.43 1.33 1.43 1.50 1.18 1.05 1.00 1.02 0.99 0.94 0.91 1.01 1.17 1.32 1.42
0.74 0.74 0.80 0.90 0.94 0.97 1.00 1.00 1.04 1.09 1.17 1.30 1.37 1.52 1.74 1.93 2.01 2.00 2.06 2.11 2.13 2.00 1.74 1.59 1.34 1.30 1.41 1.36 1.36 1.32 1.43 1.47 1.23 1.12 0.97 0.93 0.93 0.88 0.86 0.85 0.87 0.95 1.06
0.71 0.71 0.78 0.84 0.86 0.92 0.95 0.92 0.93 0.98 1.09 1.18 1.20 1.25 1.37 1.63 1.79 1.88 1.97 2.00 2.07 2.03 1.85 1.81 1.71 1.47 1.39 1.37 1.47 1.57 1.52 1.50 1.42 1.40 1.26 1.04 0.96 0.93 0.88 0.85 0.82 0.80 0.82
0.87 0.89 0.87 0.91 0.88 0.91 0.93 0.90 0.92 0.96 0.99 1.05 1.10 1.12 1.22 1.35 1.50 1.58 1.68 1.80 1.88 1.99 1.98 1.80 1.85 1.77 1.53 1.48 1.49 1.59 1.67 1.78 1.63 1.57 1.60 1.42 1.20 1.10 1.02 0.94 0.87 0.84 0.83
0.76 0.79 0.87 0.93 1.00 1.05 1.03 0.98 0.98 0.99 0.95 0.97 1.03 1.10 1.14 1.17 1.34 1.56 1.66 1.74 1.79 1.89 2.01 1.94 1.87 1.83 1.68 1.60 1.57 1.62 1.80 1.91 1.90 1.65 1.53 1.45 1.39 1.28 1.17 1.07 0.97 0.94 0.93
0.64 0.65 0.75 0.83 0.93 1.02 1.07 1.07 0.94 0.85 0.86 0.92 0.92 0.91 1.00 1.10 1.20 1.41 1.51 1.74 1.79 1.92 1.98 2.02 1.92 1.75 1.63 1.60 1.55 1.54 1.73 1.96 2.01 1.91 1.75 1.52 1.40 1.23 1.14 1.11 1.10 1.08 1.03
0.62 0.61 0.65 0.64 0.67 0.72 0.93 0.93 0.81 0.70 0.73 0.84 0.92 0.90 0.90 0.96 1.03 1.10 1.15 1.38 1.58 1.73 1.84 1.85 1.86 1.73 1.59 1.54 1.64 1.67 1.70 1.80 1.94 1.90 1.71 1.74 1.64 1.44 1.28 1.14 1.22 1.28 1.27
0.62 0.60 0.55 0.52 0.54 0.60 0.67 0.64 0.70 0.69 0.70 0.76 0.85 0.93 0.97 0.94 1.00 1.09 1.11 1.18 1.27 1.33 1.48 1.62 1.65 1.58 1.56 1.51 1.61 1.67 1.68 1.64 1.57 1.66 1.63 1.73 1.74 1.56 1.37 1.26 1.29 1.24 1.23
0.58 0.62 0.54 0.51 0.57 0.59 0.63 0.66 0.68 0.66 0.77 0.85 0.86 0.86 0.97 1.02 1.06 1.22 1.23 1.31 1.24 1.14 1.15 1.24 1.39 1.44 1.39 1.49 1.60 1.80 1.90 1.77 1.63 1.66 1.65 1.60 1.54 1.45 1.31 1.28 1.32 1.17 1.12
0.56 0.50 0.53 0.66 0.66 0.67 0.78 0.72 0.63 0.67 0.80 0.88 0.83 0.84 0.96 1.04 1.21 1.33 1.36 1.37 1.26 1.18 1.24 1.35 1.44 1.52 1.52 1.57 1.66 1.75 1.83 1.85 1.77 1.72 1.59 1.48 1.38 1.36 1.33 1.25 1.22 1.24 1.17
0.51 0.53 0.56 0.68 0.72 0.75 0.78 0.65 0.62 0.71 0.83 0.90 0.89 0.87 1.07 1.06 1.18 1.23 1.28 1.40 1.41 1.29 1.26 1.25 1.29 1.36 1.36 1.44 1.68 1.72 1.85 1.93 1.79 1.71 1.57 1.46 1.42 1.53 1.61 1.38 1.19 1.16 1.15

GEFSMA_prec_meanprecacc_318.txt.gz
Total_Precipitation_Accumulation
1.28 1.24 1.34 1.59 1.69 1.76 2.00 2.13 2.00 1.94 1.90 1.80 1.64 1.50 1.39 1.29 1.28 1.26 1.64 2.12 2.62 3.19 3.65 3.58 3.15 2.64 2.47 2.60 2.55 2.44 2.35 2.56 3.16 3.32 3.26 3.22 3.09 3.08 2.83 2.48 2.22 2.15 2.14
1.28 1.31 1.27 1.44 1.72 1.81 1.88 1.91 1.86 1.91 1.88 1.83 1.69 1.62 1.56 1.35 1.44 1.43 1.52 1.60 1.85 2.33 3.07 3.51 3.30 2.85 2.65 2.62 2.52 2.46 2.36 2.41 3.04 3.33 3.35 3.28 3.17 3.17 2.78 2.43 2.34 2.23 2.25
1.29 1.29 1.20 1.31 1.57 1.79 1.86 1.87 1.84 1.92 1.81 1.67 1.69 1.69 1.64 1.52 1.56 1.60 1.56 1.54 1.47 1.75 2.38 3.06 3.20 3.05 2.98 3.01 2.79 2.65 2.58 2.67 2.84 3.14 3.31 3.33 3.24 3.08 2.70 2.40 2.20 2.25 2.32
1.27 1.37 1.30 1.27 1.46 1.72 1.98 2.15 2.04 1.99 1.93 1.80 1.82 1.78 1.65 1.67 1.66 1.65 1.59 1.59 1.61 1.50 1.70 2.05 2.44 2.88 3.08 3.27 3.13 2.96 2.68 2.44 2.42 2.73 3.05 3.27 3.33 3.11 2.98 2.68 2.36 2.33 2.50
1.20 1.42 1.55 1.47 1.52 1.75 1.89 2.00 2.06 1.96 1.94 1.87 1.73 1.69 1.60 1.68 1.74 1.58 1.57 1.57 1.63 1.60 1.54 1.39 1.57 1.97 2.52 3.23 3.41 3.09 2.88 2.57 2.33 2.42 2.69 3.02 3.25 3.15 3.03 2.80 2.52 2.33 2.41
1.41 1.56 1.69 1.70 1.73 1.86 1.89 2.09 2.35 2.20 1.99 1.92 1.75 1.65 1.60 1.62 1.64 1.63 1.69 1.68 1.67 1.65 1.61 1.45 1.38 1.29 1.67 2.40 3.02 2.95 3.00 2.85 2.51 2.40 2.54 2.67 2.88 3.04 2.81 2.74 2.72 2.49 2.35
1.70 1.83 1.92 1.99 1.95 1.88 1.97 2.17 2.61 2.58 2.27 2.02 1.99 1.87 1.74 1.67 1.69 1.64 1.77 1.85 1.74 1.69 1.72 1.64 1.47 1.33 1.25 1.43 2.00 2.60 2.86 3.06 2.88 2.64 2.59 2.69 2.74 2.95 2.84 2.67 2.84 2.81 2.65
1.83 1.90 2.09 2.21 2.17 2.16 2.24 2.32 2.63 2.85 2.61 2.39 2.40 2.58 2.33 2.10 1.75 1.48 1.52 1.62 1.66 1.70 1.68 1.69 1.58 1.44 1.39 1.32 1.27 1.80 2.31 2.71 2.96 2.83 2.69 2.70 2.78 2.93 3.02 2.94 2.92 3.07 3.00
2.02 1.99 2.05 2.24 2.26 2.26 2.33 2.55 2.86 3.23 3.22 2.90 2.65 2.87 2.64 2.34 2.22 1.70 1.38 1.42 1.56 1.67 1.69 1.75 1.70 1.56 1.51 1.53 1.35 1.26 1.52 1.98 2.64 2.94 2.95 2.90 2.88 2.93 3.02 3.09 3.25 3.20 3.20
1.94 1.94 2.01 2.18 2.36 2.50 2.64 2.69 2.67 3.12 3.48 3.30 3.06 2.67 2.37 2.24 2.38 2.23 1.73 1.42 1.46 1.51 1.57 1.58 1.68 1.75 1.68 1.62 1.50 1.14 1.08 1.39 2.20 2.99 3.26 3.10 2.92 2.87 3.10 3.27 3.33 3.10 3.00
2.08 1.97 1.97 2.01 2.06 2.18 2.34 2.49 2.56 2.82 3.09 3.29 3.26 3.02 2.70 2.50 2.06 2.07 2.13 1.87 1.59 1.37 1.36 1.49 1.67 1.74 1.72 1.61 1.61 1.27 1.05 1.01 1.41 2.24 2.95 3.17 3.11 3.06 3.27 3.38 3.21 3.02 2.88
2.08 1.94 1.85 1.91 1.93 1.94 2.08 2.21 2.34 2.63 2.86 3.02 3.10 3.00 2.88 2.80 2.48 2.18 2.00 1.96 1.81 1.57 1.41 1.41 1.49 1.58 1.64 1.57 1.45 1.44 1.21 0.98 1.00 1.30 1.86 2.54 2.87 2.99 3.14 3.25 3.18 2.99 3.05
1.65 1.61 1.53 1.56 1.68 1.75 1.92 2.00 1.97 2.06 2.27 2.50 2.70 2.77 2.80 2.67 2.58 2.49 2.33 2.09 1.83 1.51 1.49 1.40 1.38 1.49 1.52 1.61 1.56 1.69 1.31 1.06 0.97 1.00 1.22 1.57 1.94 2.30 2.72 2.95 3.15 3.19 3.26
1.31 1.26 1.25 1.26 1.31 1.38 1.58 1.81 1.83 1.85 1.94 2.05 2.13 2.43 2.61 2.57 2.58 2.36 2.24 2.28 2.02 1.68 1.50 1.31 1.20 1.25 1.33 1.46 1.73 1.82 1.31 1.19 1.00 1.02 1.11 1.13 1.30 1.50 1.91 2.39 2.65 2.87 3.03
1.03 1.01 1.06 1.15 1.20 1.19 1.28 1.43 1.63 1.70 1.79 1.88 1.88 2.06 2.23 2.32 2.31 2.14 2.17 2.26 2.17 1.86 1.62 1.44 1.35 1.26 1.25 1.31 1.62 1.50 1.33 1.28 1.16 1.11 1.07 1.05 1.07 1.13 1.32 1.60 1.87 2.03 2.16
0.91 0.92 0.92 0.98 1.05 1.08 1.16 1.27 1.32 1.42 1.53 1.71 1.88 2.01 2.05 2.10 2.16 2.07 2.05 2.16 2.14 1.96 1.71 1.48 1.32 1.25 1.30 1.24 1.44 1.34 1.43 1.50 1.19 1.06 1.01 1.03 1.00 0.95 0.92 1.02 1.18 1.34 1.43
0.76 0.75 0.80 0.91 0.95 0.97 1.01 1.01 1.05 1.11 1.19 1.32 1.39 1.54 1.77 1.97 2.06 2.04 2.09 2.14 2.15 2.01 1.75 1.59 1.35 1.31 1.42 1.36 1.37 1.33 1.44 1.48 1.23 1.12 0.98 0.93 0.94 0.89 0.87 0.86 0.88 0.96 1.07
0.72 0.72 0.79 0.85 0.86 0.93 0.96 0.93 0.94 1.01 1.12 1.22 1.24 1.27 1.40 1.66 1.83 1.92 2.00 2.02 2.09 2.05 1.86 1.82 1.72 1.48 1.40 1.37 1.48 1.58 1.53 1.51 1.43 1.41 1.26 1.05 0.97 0.94 0.89 0.86 0.83 0.81 0.83
0.89 0.90 0.89 0.92 0.89 0.92 0.93 0.91 0.93 0.98 1.01 1.07 1.12 1.13 1.25 1.37 1.52 1.62 1.71 1.82 1.89 2.01 1.99 1.82 1.86 1.78 1.54 1.49 1.50 1.60 1.68 1.79 1.64 1.57 1.60 1.42 1.21 1.11 1.02 0.95 0.88 0.85 0.84
0.79 0.80 0.88 0.94 1.01 1.06 1.04 0.99 0.99 1.01 0.96 0.98 1.04 1.11 1.16 1.19 1.36 1.58 1.68 1.76 1.80 1.90 2.02 1.96 1.89 1.84 1.69 1.61 1.59 1.63 1.80 1.92 1.90 1.65 1.53 1.46 1.39 1.28 1.17 1.07 0.98 0.95 0.93
0.68 0.68 0.77 0.85 0.94 1.03 1.08 1.08 0.95 0.86 0.87 0.93 0.93 0.92 1.01 1.12 1.22 1.43 1.53 1.76 1.80 1.93 2.00 2.04 1.94 1.76 1.65 1.61 1.57 1.55 1.73 1.96 2.02 1.91 1.75 1.52 1.40 1.23 1.14 1.11 1.10 1.08 1.04
0.68 0.66 0.68 0.66 0.69 0.73 0.93 0.93 0.82 0.71 0.75 0.87 0.93 0.92 0.92 0.99 1.06 1.13 1.18 1.41 1.62 1.77 1.89 1.89 1.89 1.74 1.59 1.54 1.64 1.67 1.71 1.81 1.94 1.90 1.72 1.75 1.65 1.44 1.28 1.14 1.22 1.29 1.27
0.67 0.66 0.60 0.54 0.56 0.62 0.68 0.65 0.71 0.69 0.70 0.77 0.86 0.95 1.00 0.98 1.04 1.12 1.14 1.22 1.31 1.38 1.54 1.66 1.68 1.60 1.57 1.52 1.62 1.68 1.69 1.64 1.57 1.66 1.63 1.74 1.75 1.57 1.37 1.26 1.29 1.25 1.24
0.63 0.67 0.60 0.56 0.60 0.61 0.64 0.67 0.69 0.67 0.78 0.85 0.86 0.86 0.99 1.04 1.08 1.24 1.24 1.33 1.27 1.18 1.20 1.28 1.43 1.48 1.43 1.51 1.61 1.81 1.91 1.78 1.64 1.66 1.65 1.61 1.56 1.48 1.33 1.29 1.32 1.17 1.13
0.60 0.54 0.56 0.69 0.70 0.71 0.81 0.74 0.65 0.68 0.80 0.88 0.83 0.85 0.98 1.05 1.23 1.34 1.37 1.38 1.29 1.22 1.28 1.37 1.46 1.54 1.54 1.59 1.67 1.76 1.84 1.86 1.79 1.73 1.60 1.50 1.40 1.39 1.36 1.27 1.23 1.25 1.18
0.59 0.59 0.60 0.72 0.76 0.78 0.81 0.68 0.65 0.73 0.83 0.91 0.89 0.88 1.08 1.08 1.19 1.24 1.29 1.41 1.42 1.31 1.29 1.28 1.32 1.37 1.37 1.44 1.69 1.73 1.86 1.95 1.80 1.73 1.58 1.48 1.45 1.56 1.63 1.39 1.20 1.17 1.15